Shi Jian 25

operational
NORAD ID: 62485 Int'l Des: 2025-002 Owner: SAST Country: CN
HEOCIRCULARGSO

About Shi Jian 25

Description loading...

Live Position

Loading 3D Globe...

Upcoming Passes

Altitude History

Altitude vs Time

uPlot chart will show altitude changes over time

Two-Line Element Set

1 62485U 25002A 25314.79233564 -.00000349 00000-0 00000+0 0 9994
2 62485 4.6263 62.5327 0056237 168.7648 232.5164 1.00267252 3175
Epoch: Nov 10, 2025 • Age: 25 hours

Current Status

Altitude 35867.5 km
Velocity 3.07 km/s
Sub-Earth Point 3.96°N, 127.66°E
Launch Date Jan 6, 2025
Age 0.8 years
Type other

Technical Details

Classification Payload
Mass 5000.00 kg
Dry Mass 2500.00 kg
Total Mass 5000.00 kg
Length 5.00 m
Diameter 2.50 m
Span 30.00 m
Shape Box + 2 Pan
Manufacturer SAST
Bus Type SJ21
Phase Status Docked
Owner/State SAST/CN

Large Constellations

Loading constellations...